Time,TemperatureF,DewpointF,PressureIn,WindDirection,WindDirectionDegrees,WindSpeedMPH,WindSpeedGustMPH,Humidity,HourlyPrecipIn,Conditions,Clouds,dailyrainin,SoftwareType,DateUTC
2013-01-28 00:10:00,41.1,40.0,0.00,WNW,285,7.0,-999.0,95,-99.99,,,0.00,weatherlink.com 1.10,2013-01-28 05:10:00,
2013-01-28 00:25:00,41.7,40.0,0.00,NNW,332,4.0,-999.0,95,-99.99,,,0.01,weatherlink.com 1.10,2013-01-28 05:25:00,
2013-01-28 00:40:00,42.4,41.0,0.00,WNW,291,5.0,-999.0,95,-99.99,,,0.02,weatherlink.com 1.10,2013-01-28 05:40:00,
2013-01-28 00:55:00,42.2,41.0,0.00,West,276,8.0,-999.0,95,-99.99,,,0.03,weatherlink.com 1.10,2013-01-28 05:55:00,
2013-01-28 01:10:00,41.8,41.0,0.00,West,281,9.0,-999.0,95,-99.99,,,0.03,weatherlink.com 1.10,2013-01-28 06:10:00,
2013-01-28 01:25:00,42.7,41.0,0.00,WSW,247,12.0,-999.0,95,-99.99,,,0.03,weatherlink.com 1.10,2013-01-28 06:25:00,
2013-01-28 01:40:00,43.3,42.0,0.00,West,277,5.0,-999.0,96,-99.99,,,0.03,weatherlink.com 1.10,2013-01-28 06:40:00,
2013-01-28 01:55:00,43.7,42.0,0.00,WNW,293,4.0,-999.0,95,-99.99,,,0.03,weatherlink.com 1.10,2013-01-28 06:55:00,
2013-01-28 02:10:00,43.5,43.0,0.00,NW,304,5.0,-999.0,96,-99.99,,,0.04,weatherlink.com 1.10,2013-01-28 07:10:00,
2013-01-28 02:25:00,42.8,42.0,0.00,NNW,332,6.0,-999.0,95,-99.99,,,0.04,weatherlink.com 1.10,2013-01-28 07:25:00,
2013-01-28 02:40:00,43.8,43.0,0.00,WNW,288,9.0,-999.0,96,-99.99,,,0.04,weatherlink.com 1.10,2013-01-28 07:40:00,
2013-01-28 02:55:00,44.1,43.0,0.00,WNW,290,7.0,-999.0,96,-99.99,,,0.04,weatherlink.com 1.10,2013-01-28 07:55:00,
2013-01-28 03:11:00,44.2,43.0,0.00,WNW,286,6.0,-999.0,96,-99.99,,,0.04,weatherlink.com 1.10,2013-01-28 08:11:00,
2013-01-28 03:26:00,45.3,44.0,0.00,WNW,287,8.0,-999.0,96,-99.99,,,0.04,weatherlink.com 1.10,2013-01-28 08:26:00,
2013-01-28 03:41:00,45.7,45.0,0.00,WNW,285,5.0,-999.0,96,-99.99,,,0.04,weatherlink.com 1.10,2013-01-28 08:41:00,
2013-01-28 03:56:00,46.2,45.0,0.00,WNW,296,6.0,-999.0,96,-99.99,,,0.04,weatherlink.com 1.10,2013-01-28 08:56:00,
2013-01-28 04:11:00,46.2,45.0,0.00,WNW,294,5.0,-999.0,96,-99.99,,,0.04,weatherlink.com 1.10,2013-01-28 09:11:00,
2013-01-28 04:26:00,46.4,45.0,0.00,WNW,283,8.0,-999.0,95,-99.99,,,0.04,weatherlink.com 1.10,2013-01-28 09:26:00,
2013-01-28 04:41:00,46.0,45.0,0.00,WSW,250,4.0,-999.0,95,-99.99,,,0.04,weatherlink.com 1.10,2013-01-28 09:41:00,
2013-01-28 04:56:00,46.1,45.0,0.00,WNW,283,5.0,-999.0,95,-99.99,,,0.04,weatherlink.com 1.10,2013-01-28 09:56:00,
2013-01-28 05:11:00,45.6,44.0,0.00,West,278,5.0,-999.0,92,-99.99,,,0.04,weatherlink.com 1.10,2013-01-28 10:11:00,
2013-01-28 05:26:00,45.9,44.0,0.00,WNW,296,4.0,-999.0,91,-99.99,,,0.04,weatherlink.com 1.10,2013-01-28 10:26:00,
2013-01-28 05:41:00,46.5,43.0,0.00,West,262,6.0,-999.0,88,-99.99,,,0.04,weatherlink.com 1.10,2013-01-28 10:41:00,
2013-01-28 05:56:00,46.8,43.0,0.00,NW,306,2.0,-999.0,86,-99.99,,,0.04,weatherlink.com 1.10,2013-01-28 10:56:00,
2013-01-28 06:11:00,47.4,43.0,0.00,West,260,5.0,-999.0,85,-99.99,,,0.04,weatherlink.com 1.10,2013-01-28 11:11:00,
2013-01-28 06:26:00,47.7,43.0,0.00,NNW,340,4.0,-999.0,83,-99.99,,,0.04,weatherlink.com 1.10,2013-01-28 11:26:00,
2013-01-28 06:41:00,48.0,42.0,0.00,NE,36,7.0,-999.0,81,-99.99,,,0.04,weatherlink.com 1.10,2013-01-28 11:41:00,
2013-01-28 06:56:00,48.1,42.0,0.00,WNW,300,5.0,-999.0,80,-99.99,,,0.04,weatherlink.com 1.10,2013-01-28 11:56:00,
2013-01-28 07:11:00,48.2,42.0,0.00,North,9,2.0,-999.0,80,-99.99,,,0.04,weatherlink.com 1.10,2013-01-28 12:11:00,
2013-01-28 07:26:00,48.5,42.0,0.00,NW,315,9.0,-999.0,78,-99.99,,,0.04,weatherlink.com 1.10,2013-01-28 12:26:00,
2013-01-28 07:41:00,48.3,42.0,0.00,West,277,5.0,-999.0,80,-99.99,,,0.04,weatherlink.com 1.10,2013-01-28 12:41:00,
2013-01-28 07:56:00,48.6,42.0,0.00,SE,140,2.0,-999.0,78,-99.99,,,0.04,weatherlink.com 1.10,2013-01-28 12:56:00,
2013-01-28 08:11:00,48.9,42.0,0.00,WNW,282,4.0,-999.0,77,-99.99,,,0.04,weatherlink.com 1.10,2013-01-28 13:11:00,
2013-01-28 08:26:00,49.2,42.0,0.00,North,2,4.0,-999.0,77,-99.99,,,0.04,weatherlink.com 1.10,2013-01-28 13:26:00,
2013-01-28 08:41:00,49.7,42.0,0.00,West,277,11.0,-999.0,75,-99.99,,,0.04,weatherlink.com 1.10,2013-01-28 13:41:00,
2013-01-28 08:56:00,50.4,43.0,0.00,SE,131,4.0,-999.0,75,-99.99,,,0.04,weatherlink.com 1.10,2013-01-28 13:56:00,
2013-01-28 09:11:00,51.0,43.0,0.00,North,2,2.0,-999.0,74,-99.99,,,0.04,weatherlink.com 1.10,2013-01-28 14:11:00,
2013-01-28 09:26:00,51.2,44.0,0.00,West,267,7.0,-999.0,75,-99.99,,,0.05,weatherlink.com 1.10,2013-01-28 14:26:00,
2013-01-28 09:41:00,50.6,44.0,0.00,NE,53,4.0,-999.0,79,-99.99,,,0.08,weatherlink.com 1.10,2013-01-28 14:41:00,
2013-01-28 09:56:00,50.6,44.0,0.00,NE,56,9.0,-999.0,79,-99.99,,,0.11,weatherlink.com 1.10,2013-01-28 14:56:00,
2013-01-28 10:11:00,49.8,45.0,0.00,NNW,332,11.0,-999.0,84,-99.99,,,0.19,weatherlink.com 1.10,2013-01-28 15:11:00,
2013-01-28 10:26:00,49.5,45.0,0.00,WSW,248,4.0,-999.0,85,-99.99,,,0.24,weatherlink.com 1.10,2013-01-28 15:26:00,
2013-01-28 10:41:00,50.0,45.0,0.00,West,278,6.0,-999.0,84,-99.99,,,0.24,weatherlink.com 1.10,2013-01-28 15:41:00,
2013-01-28 10:56:00,50.5,46.0,0.00,WSW,254,6.0,-999.0,83,-99.99,,,0.24,weatherlink.com 1.10,2013-01-28 15:56:00,
2013-01-28 11:11:00,50.2,46.0,0.00,NNW,335,5.0,-999.0,85,-99.99,,,0.29,weatherlink.com 1.10,2013-01-28 16:11:00,
2013-01-28 11:26:00,49.7,46.0,0.00,WSW,246,5.0,-999.0,87,-99.99,,,0.36,weatherlink.com 1.10,2013-01-28 16:26:00,
2013-01-28 11:41:00,49.9,47.0,0.00,WNW,300,5.0,-999.0,88,-99.99,,,0.37,weatherlink.com 1.10,2013-01-28 16:41:00,
2013-01-28 11:56:00,50.2,47.0,0.00,West,263,4.0,-999.0,88,-99.99,,,0.37,weatherlink.com 1.10,2013-01-28 16:56:00,
2013-01-28 12:11:00,50.4,47.0,0.00,North,351,5.0,-999.0,88,-99.99,,,0.37,weatherlink.com 1.10,2013-01-28 17:11:00,
2013-01-28 12:26:00,50.8,47.0,0.00,WSW,258,7.0,-999.0,88,-99.99,,,0.37,weatherlink.com 1.10,2013-01-28 17:26:00,
2013-01-28 12:41:00,51.1,47.0,0.00,NE,37,4.0,-999.0,87,-99.99,,,0.37,weatherlink.com 1.10,2013-01-28 17:41:00,
2013-01-28 12:56:00,51.2,48.0,0.00,West,273,3.0,-999.0,87,-99.99,,,0.37,weatherlink.com 1.10,2013-01-28 17:56:00,
2013-01-28 13:11:00,51.2,48.0,0.00,West,271,3.0,-999.0,88,-99.99,,,0.37,weatherlink.com 1.10,2013-01-28 18:11:00,
2013-01-28 13:26:00,51.4,48.0,0.00,ENE,66,12.0,-999.0,88,-99.99,,,0.37,weatherlink.com 1.10,2013-01-28 18:26:00,
2013-01-28 13:41:00,51.3,48.0,0.00,WNW,283,3.0,-999.0,89,-99.99,,,0.38,weatherlink.com 1.10,2013-01-28 18:41:00,
2013-01-28 13:56:00,50.9,48.0,0.00,North,3,10.0,-999.0,91,-99.99,,,0.48,weatherlink.com 1.10,2013-01-28 18:56:00,
2013-01-28 14:11:00,51.1,49.0,0.00,WNW,294,5.0,-999.0,91,-99.99,,,0.53,weatherlink.com 1.10,2013-01-28 19:11:00,
2013-01-28 14:26:00,51.3,49.0,0.00,WNW,293,2.0,-999.0,92,-99.99,,,0.56,weatherlink.com 1.10,2013-01-28 19:26:00,
2013-01-28 14:41:00,51.5,49.0,0.00,NW,304,6.0,-999.0,92,-99.99,,,0.58,weatherlink.com 1.10,2013-01-28 19:41:00,
2013-01-28 14:56:00,51.7,50.0,0.00,WNW,293,4.0,-999.0,92,-99.99,,,0.58,weatherlink.com 1.10,2013-01-28 19:56:00,
2013-01-28 15:11:00,51.8,50.0,0.00,West,263,2.0,-999.0,92,-99.99,,,0.60,weatherlink.com 1.10,2013-01-28 20:11:00,
2013-01-28 15:26:00,52.1,50.0,0.00,WSW,241,5.0,-999.0,91,-99.99,,,0.60,weatherlink.com 1.10,2013-01-28 20:26:00,
2013-01-28 15:41:00,52.4,50.0,0.00,ENE,71,3.0,-999.0,92,-99.99,,,0.60,weatherlink.com 1.10,2013-01-28 20:41:00,
2013-01-28 15:56:00,52.4,50.0,0.00,North,360,3.0,-999.0,91,-99.99,,,0.60,weatherlink.com 1.10,2013-01-28 20:56:00,
2013-01-28 16:11:00,52.5,50.0,0.00,NNW,337,6.0,-999.0,91,-99.99,,,0.60,weatherlink.com 1.10,2013-01-28 21:11:00,
2013-01-28 16:26:00,52.5,50.0,0.00,WNW,285,4.0,-999.0,91,-99.99,,,0.60,weatherlink.com 1.10,2013-01-28 21:26:00,
2013-01-28 16:41:00,52.5,50.0,0.00,WSW,256,1.0,-999.0,91,-99.99,,,0.60,weatherlink.com 1.10,2013-01-28 21:41:00,
2013-01-28 16:56:00,52.6,50.0,0.00,South,181,2.0,-999.0,91,-99.99,,,0.60,weatherlink.com 1.10,2013-01-28 21:56:00,
2013-01-28 17:11:00,52.7,50.0,0.00,WNW,291,1.0,-999.0,91,-99.99,,,0.60,weatherlink.com 1.10,2013-01-28 22:11:00,
2013-01-28 17:26:00,52.9,50.0,0.00,North,11,4.0,-999.0,91,-99.99,,,0.60,weatherlink.com 1.10,2013-01-28 22:26:00,
2013-01-28 17:41:00,53.0,51.0,0.00,NW,306,5.0,-999.0,91,-99.99,,,0.60,weatherlink.com 1.10,2013-01-28 22:41:00,
2013-01-28 17:56:00,53.0,51.0,0.00,WNW,296,0.0,-999.0,91,-99.99,,,0.60,weatherlink.com 1.10,2013-01-28 22:56:00,
2013-01-28 18:11:00,53.1,51.0,0.00,NW,306,4.0,-999.0,92,-99.99,,,0.60,weatherlink.com 1.10,2013-01-28 23:11:00,
2013-01-28 18:26:00,53.2,51.0,0.00,North,10,1.0,-999.0,91,-99.99,,,0.60,weatherlink.com 1.10,2013-01-28 23:26:00,
2013-01-28 18:42:00,53.2,51.0,0.00,NNW,344,0.0,-999.0,91,-99.99,,,0.60,weatherlink.com 1.10,2013-01-28 23:42:00,
2013-01-28 18:57:00,53.2,51.0,0.00,NNW,331,2.0,-999.0,92,-99.99,,,0.60,weatherlink.com 1.10,2013-01-28 23:57:00,
2013-01-28 19:12:00,53.2,51.0,0.00,WNW,293,2.0,-999.0,92,-99.99,,,0.60,weatherlink.com 1.10,2013-01-29 00:12:00,
2013-01-28 19:27:00,53.2,51.0,0.00,WNW,287,4.0,-999.0,92,-99.99,,,0.61,weatherlink.com 1.10,2013-01-29 00:27:00,
2013-01-28 19:42:00,53.4,51.0,0.00,WNW,300,6.0,-999.0,92,-99.99,,,0.61,weatherlink.com 1.10,2013-01-29 00:42:00,
2013-01-28 19:57:00,53.6,51.0,0.00,NNW,339,3.0,-999.0,92,-99.99,,,0.61,weatherlink.com 1.10,2013-01-29 00:57:00,
2013-01-28 20:12:00,53.6,51.0,0.00,NNE,25,1.0,-999.0,92,-99.99,,,0.61,weatherlink.com 1.10,2013-01-29 01:12:00,
2013-01-28 20:27:00,53.7,52.0,0.00,ENE,64,2.0,-999.0,92,-99.99,,,0.61,weatherlink.com 1.10,2013-01-29 01:27:00,
2013-01-28 20:42:00,54.0,52.0,0.00,NE,42,3.0,-999.0,93,-99.99,,,0.61,weatherlink.com 1.10,2013-01-29 01:42:00,
2013-01-28 20:57:00,54.0,52.0,0.00,NW,306,2.0,-999.0,92,-99.99,,,0.61,weatherlink.com 1.10,2013-01-29 01:57:00,
2013-01-28 21:12:00,54.1,52.0,0.00,SSW,194,2.0,-999.0,92,-99.99,,,0.61,weatherlink.com 1.10,2013-01-29 02:12:00,
2013-01-28 21:27:00,54.1,52.0,0.00,NNW,337,2.0,-999.0,92,-99.99,,,0.61,weatherlink.com 1.10,2013-01-29 02:27:00,
2013-01-28 21:42:00,54.3,52.0,0.00,West,267,4.0,-999.0,92,-99.99,,,0.61,weatherlink.com 1.10,2013-01-29 02:42:00,
2013-01-28 21:57:00,54.5,52.0,0.00,West,269,2.0,-999.0,92,-99.99,,,0.61,weatherlink.com 1.10,2013-01-29 02:57:00,
2013-01-28 22:12:00,54.7,52.0,0.00,WNW,297,2.0,-999.0,91,-99.99,,,0.61,weatherlink.com 1.10,2013-01-29 03:12:00,
2013-01-28 22:27:00,54.9,52.0,0.00,North,10,0.0,-999.0,90,-99.99,,,0.61,weatherlink.com 1.10,2013-01-29 03:27:00,
2013-01-28 22:42:00,55.1,53.0,0.00,NW,310,2.0,-999.0,91,-99.99,,,0.61,weatherlink.com 1.10,2013-01-29 03:42:00,
2013-01-28 22:57:00,55.3,53.0,0.00,WNW,282,2.0,-999.0,90,-99.99,,,0.61,weatherlink.com 1.10,2013-01-29 03:57:00,
2013-01-28 23:12:00,55.3,53.0,0.00,NNE,15,3.0,-999.0,90,-99.99,,,0.61,weatherlink.com 1.10,2013-01-29 04:12:00,
2013-01-28 23:27:00,55.5,53.0,0.00,WSW,256,5.0,-999.0,91,-99.99,,,0.61,weatherlink.com 1.10,2013-01-29 04:27:00,
2013-01-28 23:42:00,55.4,53.0,0.00,WNW,300,3.0,-999.0,90,-99.99,,,0.61,weatherlink.com 1.10,2013-01-29 04:42:00,
2013-01-28 23:57:00,55.4,53.0,0.00,WNW,294,2.0,-999.0,90,-99.99,,,0.61,weatherlink.com 1.10,2013-01-29 04:57:00,